TimeCDT,TemperatureF,Dew PointF,Humidity,Sea Level PressureIn,VisibilityMPH,Wind Direction,Wind SpeedMPH,Gust SpeedMPH,PrecipitationIn,Events,Conditions,WindDirDegrees,DateUTC
12:53 AM,46.0,33.1,61,30.12,10.0,East,9.2,-,N/A,,Overcast,90,2013-04-17 05:53:00
1:53 AM,46.0,35.1,66,30.10,10.0,NE,6.9,-,0.00,Rain,Light Rain,50,2013-04-17 06:53:00
2:53 AM,44.1,37.0,76,30.04,10.0,ENE,6.9,-,0.00,,Overcast,70,2013-04-17 07:53:00
3:53 AM,45.0,36.0,71,30.01,10.0,ENE,6.9,-,N/A,,Overcast,60,2013-04-17 08:53:00
4:53 AM,45.0,37.0,74,29.99,10.0,ENE,8.1,-,N/A,,Overcast,70,2013-04-17 09:53:00
5:53 AM,46.0,37.0,71,29.95,10.0,East,10.4,-,0.00,,Overcast,90,2013-04-17 10:53:00
6:00 AM,46.4,37.4,71,29.94,10.0,East,9.2,-,N/A,Thunderstorm,Overcast,90,2013-04-17 11:00:00
6:20 AM,46.4,37.4,71,29.92,10.0,East,12.7,-,N/A,Thunderstorm,Overcast,90,2013-04-17 11:20:00
6:41 AM,46.4,37.4,71,29.90,10.0,ESE,12.7,-,0.00,,Overcast,110,2013-04-17 11:41:00
6:48 AM,46.4,37.4,71,29.91,10.0,ESE,11.5,18.4,0.00,Thunderstorm,Overcast,110,2013-04-17 11:48:00
6:53 AM,46.0,39.0,76,29.92,10.0,ESE,12.7,18.4,0.00,Thunderstorm,Overcast,120,2013-04-17 11:53:00
7:07 AM,46.4,39.2,76,29.88,10.0,ESE,13.8,25.3,0.00,Rain,Light Rain,120,2013-04-17 12:07:00
7:37 AM,46.4,39.2,76,29.96,10.0,Variable,4.6,17.3,0.00,Thunderstorm,Overcast,0,2013-04-17 12:37:00
7:53 AM,46.0,39.9,79,29.96,8.0,NNE,10.4,17.3,0.01,Rain-Thunderstorm,Light Thunderstorms and Rain,30,2013-04-17 12:53:00
8:12 AM,46.4,41.0,81,29.91,8.0,ESE,5.8,-,0.01,Rain,Light Rain,110,2013-04-17 13:12:00
9:12 AM,44.6,42.8,93,29.93,1.8,NE,13.8,-,N/A,,Overcast,40,2013-04-17 14:12:00
9:34 AM,44.6,42.8,93,29.93,2.0,ENE,13.8,-,0.02,Rain,Light Rain,60,2013-04-17 14:34:00
9:43 AM,44.6,42.8,93,29.94,4.0,NNE,12.7,-,0.02,,Overcast,30,2013-04-17 14:43:00
9:53 AM,45.0,42.1,90,29.96,2.5,North,10.4,21.9,0.04,Rain,Light Rain,10,2013-04-17 14:53:00
10:03 AM,44.6,42.8,93,29.94,1.8,NNE,13.8,-,0.04,Rain,Rain,30,2013-04-17 15:03:00
10:13 AM,44.6,42.8,93,29.93,2.5,NE,11.5,-,0.04,Rain,Light Rain,50,2013-04-17 15:13:00
10:41 AM,44.6,42.8,93,29.90,4.0,NE,12.7,-,0.05,,Overcast,50,2013-04-17 15:41:00
10:53 AM,45.0,43.0,93,29.91,3.0,NE,8.1,-,0.05,Rain,Light Rain,50,2013-04-17 15:53:00
11:10 AM,44.6,42.8,93,29.89,4.0,NNE,6.9,-,0.01,Thunderstorm,Overcast,30,2013-04-17 16:10:00
11:22 AM,46.4,42.8,87,29.90,2.0,ENE,10.4,-,0.01,,Overcast,60,2013-04-17 16:22:00
11:31 AM,46.4,42.8,87,29.91,1.8,NNE,10.4,-,0.01,Rain,Light Rain,30,2013-04-17 16:31:00
11:53 AM,46.0,44.1,93,29.90,1.0,NE,10.4,-,0.03,Rain,Light Rain,50,2013-04-17 16:53:00
12:17 PM,46.4,44.6,93,29.87,2.0,ENE,9.2,-,0.00,Rain,Light Rain,70,2013-04-17 17:17:00
12:49 PM,46.4,44.6,93,29.84,4.0,East,10.4,20.7,0.01,,Overcast,90,2013-04-17 17:49:00
12:53 PM,46.9,44.1,90,29.84,5.0,East,10.4,20.7,0.01,,Overcast,90,2013-04-17 17:53:00
1:25 PM,46.4,44.6,93,29.84,2.5,ENE,6.9,-,N/A,,Overcast,60,2013-04-17 18:25:00
1:39 PM,46.4,44.6,93,29.85,1.5,NNE,6.9,-,N/A,,Overcast,30,2013-04-17 18:39:00
1:53 PM,46.9,44.1,90,29.86,1.0,North,10.4,-,0.00,Rain,Light Rain,350,2013-04-17 18:53:00
2:48 PM,46.4,44.6,93,29.81,2.0,NE,9.2,-,0.01,,Overcast,40,2013-04-17 19:48:00
2:53 PM,46.9,45.0,93,29.81,2.5,NE,9.2,-,0.01,,Overcast,40,2013-04-17 19:53:00
3:02 PM,46.4,44.6,93,29.80,4.0,NE,10.4,-,0.01,Rain-Thunderstorm,Light Rain,40,2013-04-17 20:02:00
3:53 PM,46.9,44.1,90,29.75,10.0,NE,9.2,-,0.01,,Overcast,40,2013-04-17 20:53:00
4:28 PM,46.4,44.6,93,29.75,2.5,East,8.1,-,0.02,Rain,Light Rain,100,2013-04-17 21:28:00
4:35 PM,46.4,44.6,93,29.75,3.0,ESE,6.9,-,0.04,Rain,Light Rain,120,2013-04-17 21:35:00
4:53 PM,46.9,44.1,90,29.74,5.0,East,9.2,-,0.04,,Overcast,90,2013-04-17 21:53:00
5:41 PM,46.4,44.6,93,29.83,4.0,WNW,26.5,32.2,0.05,Rain-Thunderstorm,Light Thunderstorms and Rain,290,2013-04-17 22:41:00
5:44 PM,46.4,44.6,93,29.82,1.5,WNW,25.3,33.4,0.14,Rain-Thunderstorm,Heavy Thunderstorms and Rain,300,2013-04-17 22:44:00
5:53 PM,46.9,45.0,93,29.75,1.5,North,17.3,33.4,0.15,Rain-Thunderstorm,Light Rain,360,2013-04-17 22:53:00
5:56 PM,46.4,44.6,93,29.75,2.5,NNW,18.4,29.9,0.01,Rain-Thunderstorm,Rain,340,2013-04-17 22:56:00
5:59 PM,46.4,44.6,93,29.74,3.0,North,13.8,-,0.02,Rain-Thunderstorm,Light Rain,360,2013-04-17 22:59:00
6:06 PM,48.2,44.6,87,29.75,6.0,North,11.5,21.9,0.02,Rain,Light Rain,360,2013-04-17 23:06:00
6:14 PM,48.2,46.4,93,29.74,10.0,North,10.4,-,0.02,Rain,Light Rain,10,2013-04-17 23:14:00
6:53 PM,48.0,46.0,93,29.73,10.0,North,10.4,-,0.05,,Overcast,360,2013-04-17 23:53:00
7:09 PM,48.2,46.4,93,29.70,10.0,Variable,6.9,-,0.01,Rain-Thunderstorm,Light Rain,0,2013-04-18 00:09:00
7:36 PM,48.2,46.4,93,29.69,9.0,NNE,9.2,-,0.03,Rain,Rain,30,2013-04-18 00:36:00
7:48 PM,48.2,46.4,93,29.68,8.0,ENE,11.5,-,0.05,Rain-Thunderstorm,Light Rain,70,2013-04-18 00:48:00
7:53 PM,48.0,46.0,93,29.69,10.0,NE,11.5,-,0.05,Rain-Thunderstorm,Light Rain,40,2013-04-18 00:53:00
8:03 PM,48.2,46.4,93,29.72,10.0,NNW,10.4,-,0.00,Rain-Thunderstorm,Light Rain,340,2013-04-18 01:03:00
8:37 PM,48.2,46.4,93,29.69,6.0,NNE,5.8,-,0.14,Rain-Thunderstorm,Heavy Thunderstorms and Rain,20,2013-04-18 01:37:00
8:53 PM,48.0,48.0,100,29.73,7.0,Calm,Calm,-,0.20,Rain-Thunderstorm,Light Thunderstorms and Rain,0,2013-04-18 01:53:00
9:07 PM,48.2,46.4,93,29.72,10.0,NW,15.0,-,0.01,Rain-Thunderstorm,Light Thunderstorms and Rain,310,2013-04-18 02:07:00
9:17 PM,48.2,46.4,93,29.72,10.0,NW,15.0,-,0.01,Rain-Thunderstorm,Light Rain,310,2013-04-18 02:17:00
9:27 PM,46.4,44.6,93,29.74,4.0,WNW,11.5,20.7,0.07,Rain-Thunderstorm,Heavy Thunderstorms and Rain,290,2013-04-18 02:27:00
9:53 PM,46.0,45.0,96,29.76,8.0,NNW,12.7,-,0.12,Rain-Thunderstorm,Light Rain,330,2013-04-18 02:53:00
10:02 PM,46.4,44.6,93,29.74,10.0,NNW,15.0,-,0.00,Thunderstorm,Overcast,340,2013-04-18 03:02:00
10:38 PM,44.6,42.8,93,29.72,10.0,NNW,15.0,-,0.01,Rain,Light Rain,340,2013-04-18 03:38:00
10:53 PM,44.1,42.1,93,29.71,10.0,North,17.3,-,0.01,Rain,Light Rain,350,2013-04-18 03:53:00
11:02 PM,44.6,42.8,93,29.70,10.0,NNW,18.4,-,0.01,Rain-Thunderstorm,Light Thunderstorms and Rain,340,2013-04-18 04:02:00
11:41 PM,42.8,41.0,93,29.67,10.0,North,15.0,24.2,0.03,,Overcast,360,2013-04-18 04:41:00
11:53 PM,43.0,41.0,93,29.70,10.0,North,12.7,-,0.03,,Overcast,10,2013-04-18 04:53:00